Location: *
(47.2969°N, 10.2930°E)
Time: 05:26:25
(UTC+00:00)

SL-8 Rocket - Pass Details

Date: 09 April 2020
Orbit: 957 x 990 km, 82.9° (Epoch: 29 May)

Event Time Altitude Azimuth Distance (km) Brightness Sun altitude
Rises 19:21:35 0° 353° (N) 3,710 7.6 -13.7°
Reaches altitude 10° 19:24:10 10° 358° (N) 2,760 6.8 -14.1°
Maximum altitude 19:30:24 58° 77° (ENE) 1,149 4.1 -15.0°
Enters shadow 19:35:11 18° 152° (SSE) 2,239 5.4 -15.7°
